Flag for Germany Weather past 2 weeks in Flensburg, Schleswig-Holstein, Germany

Now
52 °F

Sprinkles. Passing clouds.


Feels Like: 49 °F
Forecast: 53 / 62 °F
Wind: 7 mph from Southwest

Location: Soenderborg Lufthavn

Current Time: Aug 21, 2014 at 8:17:40 AM

Latest Report: Aug 21, 2014 at 7:50 AM


Visibility: N/A

Pressure: 29.86 "Hg

Humidity: 94%

Dew point: 50 °F

Location of FlensburgLocation

Historic Weather in Flensburg — Graph

°F

Flensburg temperature yesterday

Maximum temperature yesterday: 63 °F (at 1:56 PM)
Minimum temperature yesterday: 52 °F (at 5:53 AM)
Average temperature yesterday: 58 °F

Past Weeks' High & Low Weather Summary

 TemperatureHumidityPressure
High75 °F (Aug 6, 1:50 PM)100% (Aug 8, 6:51 AM)30.04 "Hg (Aug 8, 6:51 AM)
Low52 °F (Aug 20, 5:53 AM)41% (Aug 8, 2:50 PM)29.36 "Hg (Aug 18, 8:23 AM)
Average63 °F75%29.71 "Hg
* Reported Aug 6 7:50 AM — Aug 21 7:20 AM, Flensburg, Weather by CustomWeather, © 2014

Note: Actual official high and low records may vary slightly from our data, if they occured in-between our weather recording intervals... More about our weather records

Advertising

Flensburg weather history for previous 24 hours

 ConditionsComfort  
Time TempWeatherWind HumidityBarometerVisibility
7:20 AM
Aug 21
52 °FSprinkles. Passing clouds.7 mph88%29.86 "HgN/A
6:50 AM52 °FSprinkles. Passing clouds.7 mph88%29.86 "HgN/A
6:20 AM52 °FSprinkles. Passing clouds.6 mph88%29.86 "HgN/A
5:50 AM52 °FSprinkles. Passing clouds.6 mph88%29.86 "HgN/A
9:52 PM
Aug 20
55 °FPassing clouds.7 mph77%29.83 "HgN/A
8:52 PM57 °FScattered clouds.8 mph72%29.83 "HgN/A
7:52 PM59 °FScattered clouds.10 mph68%29.83 "HgN/A
6:50 PM59 °FScattered clouds.12 mph68%29.83 "HgN/A
5:50 PM59 °FPartly sunny.16 mph68%29.80 "HgN/A
4:50 PM61 °FPartly sunny.14 mph63%29.80 "HgN/A
3:50 PM63 °FRain showers. Partly sunny.16 mph59%29.80 "HgN/A
2:50 PM59 °FRain showers. Partly sunny.15 mph77%29.80 "HgN/A
2:26 PM63 °FPartly sunny.16 mph59%29.77 "HgN/A
1:56 PM63 °FScattered clouds.16 mph59%29.77 "HgN/A
12:50 PM61 °FSprinkles. Scattered clouds.13 mph72%29.77 "HgN/A
12:20 PM61 °FSprinkles. Scattered clouds.18 mph63%29.74 "HgN/A
11:50 AM59 °FSprinkles. Scattered clouds.14 mph68%29.74 "HgN/A
11:33 AM59 °FSprinkles. Scattered clouds.15 mph68%29.74 "HgN/A
11:06 AM61 °FScattered clouds.13 mph72%29.74 "HgN/A
9:51 AM57 °FScattered clouds.10 mph77%29.74 "HgN/A
9:20 AM55 °FSprinkles. Scattered clouds.10 mph82%29.71 "HgN/A
8:51 AM55 °FSprinkles. Scattered clouds.9 mph82%29.71 "HgN/A
8:26 AM54 °FSprinkles. Scattered clouds.10 mph88%29.71 "Hg6 mi
8:00 AM54 °FSprinkles. Scattered clouds.8 mph88%29.71 "Hg6 mi
Weather by CustomWeather, © 2014

See weather overviewHow to use our weather pages